Total_Precipitation_Accumulation
0.07 0.08 0.07 0.08 0.09 0.05 0.06 0.09 0.07 0.06 0.05 0.07 0.06 0.06 0.06 0.06 0.04 0.04 0.04 0.06 0.03 0.04 0.04 0.01 0.02 0.02 0.01 0.01 0.01 0.00 0.00 0.01 0.00 0.00 0.00 0.00 0.00 0.00 0.00 0.00 0.00 0.00 0.00 0.00 0.00 0.00 0.00 0.00 0.00 0.00 0.00 0.00 0.00 0.00 0.00 0.00 0.00 0.00 0.00 0.00 0.00 0.00 0.00 0.00 0.00 0.00 0.00 0.00 0.00 0.00 0.00 0.00 0.00 0.00 0.00 0.00 0.00 0.01 0.00 0.02 0.02 0.03 0.09 0.08 0.12 0.16 0.10 0.17
0.09 0.10 0.08 0.08 0.05 0.08 0.07 0.06 0.08 0.07 0.05 0.04 0.05 0.05 0.05 0.07 0.06 0.05 0.04 0.04 0.05 0.03 0.02 0.06 0.02 0.01 0.02 0.00 0.00 0.00 0.00 0.00 0.00 0.00 0.00 0.00 0.00 0.00 0.00 0.00 0.00 0.00 0.00 0.00 0.00 0.00 0.00 0.00 0.00 0.00 0.00 0.00 0.00 0.00 0.00 0.00 0.00 0.00 0.00 0.00 0.00 0.00 0.00 0.00 0.00 0.00 0.00 0.00 0.00 0.00 0.00 0.00 0.00 0.01 0.00 0.01 0.00 0.00 0.01 0.06 0.04 0.15 0.21 0.13 0.16 0.14 0.18 0.20
0.08 0.07 0.10 0.06 0.07 0.08 0.06 0.06 0.06 0.04 0.05 0.06 0.06 0.06 0.04 0.06 0.05 0.05 0.05 0.05 0.05 0.04 0.03 0.02 0.04 0.01 0.00 0.01 0.00 0.01 0.01 0.00 0.00 0.00 0.00 0.00 0.00 0.00 0.00 0.00 0.00 0.00 0.00 0.00 0.00 0.00 0.00 0.00 0.00 0.00 0.00 0.00 0.00 0.00 0.00 0.00 0.00 0.00 0.00 0.00 0.00 0.00 0.00 0.00 0.00 0.00 0.00 0.00 0.00 0.00 0.00 0.00 0.00 0.00 0.00 0.03 0.01 0.00 0.01 0.08 0.08 0.14 0.35 0.15 0.21 0.20 0.18 0.36
0.07 0.06 0.07 0.06 0.07 0.06 0.07 0.07 0.06 0.04 0.06 0.05 0.04 0.05 0.06 0.05 0.04 0.05 0.06 0.05 0.02 0.04 0.05 0.02 0.01 0.02 0.01 0.01 0.03 0.00 0.00 0.00 0.00 0.00 0.00 0.00 0.00 0.00 0.00 0.00 0.00 0.00 0.00 0.00 0.00 0.00 0.00 0.00 0.00 0.00 0.00 0.00 0.00 0.00 0.00 0.00 0.00 0.00 0.00 0.00 0.00 0.00 0.00 0.00 0.00 0.00 0.00 0.00 0.00 0.00 0.00 0.00 0.00 0.00 0.00 0.00 0.02 0.01 0.10 0.00 0.03 0.12 0.23 0.21 0.25 0.23 0.23 0.33
0.08 0.07 0.08 0.05 0.05 0.05 0.06 0.04 0.04 0.06 0.05 0.05 0.06 0.06 0.09 0.09 0.06 0.07 0.04 0.03 0.06 0.04 0.03 0.02 0.02 0.01 0.01 0.03 0.01 0.01 0.00 0.00 0.00 0.00 0.00 0.00 0.00 0.00 0.00 0.00 0.00 0.00 0.00 0.00 0.00 0.00 0.00 0.00 0.00 0.00 0.00 0.00 0.00 0.00 0.00 0.00 0.00 0.00 0.00 0.00 0.00 0.00 0.00 0.00 0.00 0.00 0.00 0.00 0.00 0.00 0.00 0.00 0.00 0.00 0.00 0.01 0.02 0.24 0.04 0.01 0.02 0.42 0.82 0.19 0.31 0.20 0.28 0.36
0.08 0.07 0.10 0.06 0.06 0.06 0.07 0.05 0.05 0.05 0.06 0.06 0.06 0.06 0.10 0.07 0.06 0.05 0.04 0.03 0.04 0.03 0.02 0.02 0.03 0.02 0.01 0.01 0.01 0.00 0.00 0.00 0.00 0.00 0.00 0.00 0.00 0.00 0.00 0.00 0.00 0.00 0.00 0.00 0.00 0.00 0.00 0.00 0.00 0.00 0.00 0.00 0.00 0.00 0.00 0.00 0.00 0.00 0.00 0.00 0.00 0.00 0.00 0.00 0.00 0.00 0.00 0.00 0.00 0.00 0.00 0.00 0.00 0.00 0.00 0.00 0.04 0.05 0.01 0.01 0.01 0.09 0.43 0.31 0.25 0.18 0.29 0.67
0.07 0.07 0.07 0.06 0.06 0.07 0.07 0.08 0.06 0.07 0.06 0.07 0.06 0.06 0.06 0.07 0.06 0.05 0.06 0.04 0.03 0.03 0.01 0.01 0.01 0.02 0.02 0.01 0.00 0.02 0.01 0.00 0.00 0.00 0.00 0.00 0.00 0.00 0.00 0.00 0.00 0.00 0.00 0.00 0.00 0.00 0.00 0.00 0.00 0.00 0.00 0.00 0.00 0.00 0.00 0.00 0.00 0.00 0.00 0.00 0.00 0.00 0.00 0.00 0.00 0.00 0.00 0.00 0.00 0.00 0.00 0.00 0.00 0.00 0.00 0.00 0.00 0.00 0.01 0.02 0.05 0.15 0.32 0.20 0.16 0.41 0.31 0.38
0.08 0.08 0.06 0.07 0.06 0.06 0.06 0.07 0.06 0.05 0.06 0.09 0.07 0.04 0.07 0.06 0.09 0.07 0.05 0.04 0.04 0.02 0.03 0.03 0.01 0.01 0.02 0.01 0.01 0.02 0.02 0.00 0.00 0.00 0.00 0.00 0.00 0.00 0.00 0.00 0.00 0.00 0.00 0.00 0.00 0.00 0.00 0.00 0.00 0.00 0.00 0.00 0.00 0.00 0.00 0.00 0.00 0.00 0.00 0.00 0.00 0.00 0.00 0.00 0.00 0.00 0.00 0.00 0.00 0.00 0.00 0.00 0.00 0.00 0.00 0.00 0.00 0.00 0.01 0.02 0.07 0.15 0.29 0.14 0.12 0.26 0.37 0.51
0.06 0.06 0.05 0.06 0.06 0.06 0.06 0.08 0.07 0.06 0.06 0.06 0.07 0.07 0.08 0.10 0.08 0.06 0.05 0.06 0.03 0.03 0.01 0.02 0.02 0.03 0.05 0.10 0.08 0.08 0.01 0.00 0.00 0.00 0.00 0.00 0.00 0.00 0.00 0.00 0.00 0.00 0.00 0.00 0.00 0.00 0.00 0.00 0.00 0.00 0.00 0.00 0.00 0.00 0.00 0.00 0.00 0.00 0.00 0.00 0.00 0.00 0.00 0.00 0.00 0.00 0.00 0.00 0.00 0.00 0.00 0.00 0.00 0.00 0.00 0.01 0.01 0.01 0.01 0.02 0.06 0.20 0.19 0.19 0.19 0.22 1.05 0.73
0.06 0.05 0.07 0.06 0.08 0.08 0.07 0.07 0.07 0.08 0.06 0.09 0.09 0.10 0.08 0.06 0.05 0.07 0.03 0.03 0.04 0.03 0.01 0.02 0.02 0.04 0.09 0.08 0.05 0.06 0.00 0.00 0.00 0.00 0.00 0.00 0.00 0.00 0.00 0.00 0.00 0.00 0.00 0.00 0.00 0.00 0.00 0.00 0.00 0.00 0.00 0.00 0.00 0.00 0.00 0.00 0.00 0.00 0.00 0.00 0.00 0.00 0.00 0.00 0.00 0.00 0.00 0.00 0.00 0.00 0.00 0.00 0.00 0.00 0.01 0.05 0.01 0.03 0.02 0.05 0.17 0.20 0.31 0.10 0.30 1.18 1.27 1.14
0.07 0.06 0.05 0.08 0.08 0.06 0.08 0.08 0.10 0.07 0.09 0.07 0.11 0.10 0.08 0.04 0.05 0.04 0.03 0.03 0.06 0.03 0.02 0.01 0.04 0.04 0.13 0.08 0.07 0.02 0.00 0.00 0.00 0.00 0.00 0.00 0.00 0.00 0.00 0.00 0.00 0.00 0.00 0.00 0.00 0.00 0.00 0.00 0.00 0.00 0.00 0.00 0.00 0.00 0.00 0.00 0.00 0.00 0.00 0.00 0.00 0.00 0.00 0.00 0.00 0.00 0.00 0.00 0.00 0.00 0.00 0.00 0.00 0.00 0.01 0.03 0.05 0.02 0.02 0.10 0.11 0.19 0.34 0.56 0.89 0.75 0.66 1.33
0.06 0.07 0.06 0.06 0.08 0.10 0.07 0.07 0.08 0.07 0.07 0.13 0.09 0.06 0.06 0.06 0.05 0.05 0.05 0.05 0.05 0.05 0.03 0.02 0.03 0.24 0.12 0.18 0.10 0.01 0.00 0.00 0.00 0.00 0.00 0.00 0.00 0.00 0.00 0.00 0.00 0.00 0.00 0.00 0.00 0.00 0.00 0.00 0.00 0.00 0.00 0.00 0.00 0.00 0.00 0.00 0.00 0.00 0.00 0.00 0.00 0.00 0.00 0.00 0.00 0.00 0.00 0.00 0.00 0.00 0.00 0.00 0.00 0.00 0.00 0.02 0.02 0.06 0.05 0.08 0.22 0.16 0.25 0.19 0.31 0.62 0.83 1.63
0.05 0.09 0.07 0.09 0.07 0.08 0.06 0.07 0.13 0.10 0.09 0.07 0.05 0.06 0.06 0.06 0.05 0.05 0.04 0.04 0.04 0.06 0.04 0.06 0.08 0.20 0.37 0.27 0.01 0.00 0.00 0.00 0.00 0.00 0.00 0.00 0.00 0.00 0.00 0.00 0.00 0.00 0.00 0.00 0.00 0.00 0.00 0.00 0.00 0.00 0.00 0.00 0.00 0.00 0.00 0.00 0.00 0.00 0.00 0.00 0.00 0.00 0.00 0.00 0.00 0.00 0.00 0.00 0.00 0.00 0.00 0.00 0.00 0.00 0.03 0.05 0.05 0.09 0.10 0.14 0.27 0.44 0.35 0.25 0.48 0.74 0.82 1.09
0.05 0.06 0.06 0.07 0.06 0.06 0.08 0.06 0.06 0.08 0.07 0.09 0.07 0.08 0.06 0.05 0.07 0.04 0.06 0.05 0.06 0.06 0.07 0.04 0.15 0.14 0.34 0.08 0.00 0.00 0.00 0.00 0.00 0.00 0.00 0.00 0.00 0.00 0.00 0.00 0.00 0.00 0.00 0.00 0.00 0.00 0.00 0.00 0.00 0.00 0.00 0.00 0.00 0.00 0.00 0.00 0.00 0.00 0.00 0.00 0.00 0.00 0.00 0.00 0.00 0.00 0.00 0.00 0.00 0.00 0.00 0.00 0.00 0.00 0.06 0.17 0.13 0.08 0.09 0.26 0.56 0.73 0.61 0.92 0.88 1.78 1.60 1.37
0.07 0.06 0.07 0.06 0.06 0.06 0.10 0.07 0.09 0.07 0.07 0.06 0.06 0.06 0.03 0.02 0.03 0.04 0.05 0.10 0.05 0.04 0.03 0.08 0.06 0.25 0.27 0.02 0.00 0.00 0.00 0.00 0.00 0.00 0.00 0.00 0.00 0.00 0.00 0.00 0.00 0.00 0.00 0.00 0.00 0.00 0.00 0.00 0.00 0.00 0.00 0.00 0.00 0.00 0.00 0.00 0.00 0.00 0.00 0.00 0.00 0.00 0.00 0.00 0.00 0.00 0.00 0.00 0.00 0.00 0.00 0.00 0.00 0.08 0.07 0.22 0.52 0.34 0.12 0.21 0.62 0.90 1.23 1.01 1.02 1.38 1.31 1.70
0.08 0.11 0.08 0.07 0.07 0.09 0.08 0.10 0.06 0.08 0.04 0.08 0.05 0.03 0.01 0.01 0.04 0.03 0.04 0.06 0.06 0.09 0.06 0.09 0.06 0.09 0.11 0.06 0.00 0.00 0.00 0.00 0.00 0.00 0.00 0.00 0.00 0.00 0.00 0.00 0.00 0.00 0.00 0.00 0.00 0.00 0.00 0.00 0.00 0.00 0.00 0.00 0.00 0.00 0.00 0.00 0.00 0.00 0.00 0.00 0.00 0.00 0.00 0.00 0.00 0.00 0.00 0.00 0.00 0.00 0.00 0.01 0.01 0.07 0.12 1.63 1.54 0.75 0.29 0.59 0.96 0.86 0.95 1.56 1.08 1.02 1.24 1.42
0.06 0.06 0.07 0.07 0.06 0.08 0.07 0.07 0.07 0.09 0.11 0.05 0.04 0.01 0.01 0.00 0.01 0.02 0.02 0.04 0.02 0.03 0.11 0.06 0.03 0.12 0.23 0.00 0.00 0.00 0.00 0.00 0.00 0.00 0.00 0.00 0.00 0.00 0.00 0.00 0.00 0.00 0.00 0.00 0.00 0.00 0.00 0.00 0.00 0.00 0.00 0.00 0.00 0.00 0.00 0.00 0.00 0.00 0.00 0.00 0.01 0.00 0.00 0.00 0.00 0.00 0.00 0.00 0.00 0.00 0.00 0.00 0.01 0.04 0.15 0.37 0.52 0.72 0.38 0.59 0.89 1.60 2.00 2.14 1.33 1.13 1.62 2.39
0.08 0.09 0.10 0.09 0.08 0.07 0.06 0.08 0.10 0.10 0.06 0.05 0.09 0.02 0.02 0.00 0.00 0.00 0.01 0.01 0.02 0.02 0.05 0.08 0.09 0.33 0.05 0.00 0.00 0.00 0.00 0.00 0.00 0.00 0.00 0.00 0.00 0.00 0.00 0.00 0.00 0.00 0.00 0.00 0.00 0.00 0.00 0.00 0.00 0.00 0.00 0.00 0.00 0.00 0.00 0.00 0.00 0.00 0.00 0.00 0.00 0.00 0.00 0.00 0.00 0.00 0.00 0.00 0.00 0.00 0.00 0.00 0.00 0.01 0.02 0.14 0.46 0.40 0.33 0.84 1.36 1.85 1.84 2.75 2.97 1.79 1.89 0.63
0.10 0.11 0.07 0.08 0.07 0.09 0.07 0.13 0.14 0.11 0.08 0.06 0.02 0.01 0.00 0.00 0.01 0.01 0.03 0.09 0.13 0.24 0.17 0.17 0.26 0.05 0.02 0.01 0.00 0.00 0.00 0.00 0.00 0.00 0.00 0.00 0.00 0.00 0.00 0.00 0.00 0.00 0.00 0.00 0.00 0.00 0.00 0.00 0.00 0.00 0.00 0.00 0.00 0.00 0.00 0.00 0.00 0.00 0.00 0.00 0.00 0.01 0.00 0.00 0.00 0.00 0.00 0.00 0.00 0.00 0.00 0.00 0.01 0.01 0.05 0.08 0.13 0.18 0.22 0.88 2.04 1.92 1.27 1.90 1.88 1.05 0.70 0.29
0.11 0.10 0.09 0.08 0.08 0.08 0.10 0.09 0.08 0.09 0.11 0.09 0.05 0.02 0.04 0.10 0.19 0.11 0.07 0.10 0.15 0.02 0.00 0.00 0.00 0.00 0.00 0.00 0.00 0.00 0.00 0.00 0.00 0.00 0.00 0.00 0.00 0.00 0.01 0.01 0.00 0.00 0.00 0.00 0.00 0.00 0.00 0.00 0.00 0.00 0.00 0.00 0.00 0.00 0.00 0.00 0.00 0.00 0.00 0.00 0.00 0.00 0.00 0.00 0.00 0.00 0.00 0.00 0.00 0.00 0.00 0.00 0.00 0.01 0.11 0.02 0.10 0.13 0.26 0.95 1.63 2.35 2.46 1.29 0.97 0.90 0.47 0.60
0.10 0.13 0.13 0.09 0.13 0.10 0.07 0.05 0.11 0.05 0.16 0.17 0.09 0.05 0.05 0.02 0.07 0.11 0.24 0.11 0.01 0.00 0.00 0.00 0.01 0.00 0.00 0.00 0.00 0.00 0.02 0.01 0.00 0.00 0.00 0.00 0.00 0.00 0.02 0.01 0.02 0.00 0.00 0.00 0.00 0.00 0.01 0.01 0.00 0.00 0.00 0.00 0.00 0.00 0.00 0.00 0.00 0.00 0.00 0.00 0.00 0.00 0.00 0.00 0.00 0.00 0.00 0.00 0.00 0.00 0.01 0.00 0.01 0.00 0.07 0.06 0.05 0.18 0.20 0.37 1.13 1.23 1.17 0.85 0.99 0.99 0.75 0.84
0.11 0.13 0.17 0.15 0.10 0.13 0.09 0.10 0.08 0.16 0.10 0.10 0.10 0.10 0.04 0.05 0.05 0.06 0.10 0.14 0.02 0.02 0.00 0.00 0.00 0.00 0.00 0.00 0.00 0.00 0.00 0.00 0.02 0.00 0.00 0.00 0.00 0.01 0.02 0.03 0.02 0.00 0.00 0.00 0.03 0.03 0.02 0.01 0.00 0.00 0.00 0.00 0.00 0.00 0.00 0.00 0.00 0.00 0.00 0.00 0.00 0.01 0.00 0.00 0.00 0.00 0.00 0.00 0.00 0.00 0.01 0.00 0.02 0.02 0.04 0.09 0.08 0.08 0.15 0.19 0.77 0.62 1.28 1.31 1.35 1.05 0.84 1.01
0.13 0.13 0.13 0.11 0.16 0.07 0.20 0.06 0.16 0.15 0.19 0.12 0.09 0.04 0.04 0.03 0.05 0.32 0.35 0.21 0.20 0.01 0.02 0.00 0.00 0.00 0.00 0.00 0.00 0.00 0.00 0.00 0.00 0.00 0.01 0.00 0.00 0.00 0.01 0.03 0.02 0.00 0.00 0.00 0.01 0.04 0.02 0.00 0.00 0.00 0.00 0.00 0.00 0.00 0.00 0.00 0.00 0.00 0.00 0.00 0.00 0.00 0.00 0.03 0.00 0.00 0.00 0.00 0.00 0.00 0.03 0.02 0.01 0.03 0.17 0.09 0.05 0.31 0.83 1.83 1.54 0.54 0.47 0.49 0.85 0.74 0.53 0.71
0.12 0.12 0.11 0.22 0.16 0.18 0.10 0.16 0.09 0.07 0.12 0.09 0.05 0.03 0.07 0.04 0.04 0.15 0.32 0.39 0.05 0.01 0.00 0.00 0.00 0.00 0.00 0.01 0.00 0.00 0.00 0.00 0.00 0.00 0.01 0.00 0.00 0.01 0.00 0.01 0.04 0.02 0.03 0.00 0.00 0.03 0.01 0.00 0.00 0.00 0.00 0.00 0.00 0.00 0.00 0.00 0.00 0.00 0.00 0.00 0.00 0.00 0.00 0.00 0.06 0.00 0.00 0.00 0.00 0.00 0.02 0.06 0.02 0.08 0.09 0.08 0.29 0.45 0.90 2.00 1.34 1.53 0.94 0.36 0.53 0.50 0.40 0.45
0.11 0.12 0.16 0.14 0.34 0.12 0.10 0.12 0.08 0.07 0.06 0.35 0.09 0.13 0.19 0.10 0.10 0.18 0.29 0.19 0.07 0.01 0.00 0.00 0.00 0.00 0.00 0.00 0.00 0.00 0.01 0.00 0.00 0.00 0.00 0.00 0.00 0.00 0.00 0.01 0.01 0.04 0.04 0.01 0.00 0.01 0.00 0.01 0.00 0.00 0.00 0.00 0.00 0.00 0.00 0.00 0.00 0.00 0.00 0.00 0.00 0.00 0.00 0.00 0.00 0.00 0.00 0.02 0.00 0.01 0.02 0.07 0.09 0.17 0.08 0.07 0.06 0.26 0.51 1.20 0.63 0.83 1.41 1.57 0.57 0.45 0.90 0.67
0.14 0.09 0.20 0.17 0.18 0.27 0.27 0.12 0.18 0.21 0.10 0.29 0.19 0.38 0.27 0.17 0.24 0.67 0.22 0.52 0.05 0.07 0.01 0.04 0.00 0.01 0.00 0.00 0.00 0.00 0.00 0.00 0.01 0.00 0.00 0.00 0.00 0.00 0.03 0.03 0.01 0.12 0.02 0.02 0.01 0.01 0.00 0.00 0.02 0.00 0.00 0.00 0.00 0.00 0.00 0.00 0.00 0.00 0.03 0.00 0.00 0.00 0.00 0.00 0.00 0.00 0.00 0.02 0.04 0.00 0.01 0.08 0.12 0.11 0.08 0.05 0.05 0.07 0.24 0.57 0.17 0.52 0.55 0.65 1.02 1.17 0.44 0.40
0.12 0.13 0.18 0.19 0.14 0.49 0.29 0.25 0.08 0.07 0.15 0.14 0.40 0.25 0.12 0.39 0.44 0.43 0.44 0.23 0.16 0.17 0.03 0.20 0.01 0.02 0.00 0.00 0.00 0.00 0.15 0.02 0.00 0.00 0.00 0.00 0.02 0.01 0.04 0.02 0.01 0.01 0.07 0.12 0.02 0.02 0.00 0.12 0.02 0.01 0.00 0.00 0.00 0.00 0.00 0.00 0.00 0.02 0.01 0.00 0.00 0.01 0.00 0.00 0.00 0.00 0.01 0.00 0.01 0.00 0.01 0.07 0.12 0.17 0.07 0.02 0.03 0.11 0.11 0.15 0.33 0.44 0.85 0.54 0.43 0.37 0.41 0.50
0.15 0.15 0.15 0.16 0.16 0.77 0.61 0.28 0.25 0.30 0.26 0.32 0.16 0.18 0.27 0.16 0.41 0.71 0.40 0.30 0.24 0.13 0.23 0.02 0.07 0.00 0.00 0.01 0.00 0.06 0.02 0.00 0.04 0.01 0.00 0.00 0.00 0.02 0.00 0.02 0.02 0.01 0.01 0.06 0.12 0.05 0.00 0.02 0.02 0.02 0.01 0.00 0.00 0.00 0.00 0.00 0.00 0.01 0.00 0.00 0.00 0.00 0.02 0.00 0.00 0.01 0.05 0.01 0.04 0.00 0.01 0.03 0.10 0.11 0.05 0.05 0.13 0.18 0.18 0.16 0.28 0.35 0.51 1.04 0.78 0.52 0.39 0.43
0.11 0.17 0.13 0.13 0.14 0.37 0.27 0.32 0.21 0.14 0.63 0.10 0.40 0.12 0.30 0.56 0.39 0.91 0.74 0.35 0.75 0.35 0.05 0.69 0.19 0.09 0.07 0.00 0.05 0.03 0.01 0.02 0.04 0.03 0.00 0.00 0.00 0.02 0.04 0.02 0.01 0.03 0.05 0.02 0.04 0.03 0.04 0.02 0.01 0.01 0.02 0.01 0.00 0.00 0.00 0.00 0.01 0.00 0.00 0.00 0.00 0.00 0.00 0.00 0.02 0.00 0.09 0.00 0.04 0.05 0.10 0.02 0.12 0.17 0.20 0.21 0.12 0.25 0.23 0.30 0.31 0.18 0.26 0.35 0.36 0.60 0.45 0.54
0.12 0.10 0.10 0.14 0.27 0.23 0.61 0.36 0.36 0.21 0.26 0.41 0.37 0.27 0.23 0.47 1.28 0.68 0.86 0.35 0.67 0.71 0.34 0.38 0.19 0.32 0.06 0.06 0.02 0.01 0.02 0.10 0.01 0.00 0.01 0.02 0.01 0.00 0.00 0.01 0.10 0.02 0.03 0.00 0.09 0.05 0.09 0.00 0.01 0.02 0.03 0.01 0.00 0.00 0.00 0.00 0.00 0.00 0.00 0.00 0.00 0.00 0.03 0.01 0.00 0.05 0.06 0.03 0.03 0.03 0.02 0.01 0.18 0.18 0.12 0.26 0.23 0.10 0.24 0.22 0.31 0.17 0.14 0.30 0.26 0.64 0.43 0.60
0.17 0.23 0.22 0.51 0.38 0.23 0.23 0.32 0.27 0.13 0.40 0.61 0.28 0.33 0.56 1.04 1.00 0.76 0.47 0.26 0.33 0.77 0.72 0.34 0.24 0.17 0.22 0.08 0.25 0.20 0.08 0.15 0.14 0.03 0.08 0.00 0.04 0.00 0.04 0.06 0.05 0.08 0.09 0.08 0.09 0.02 0.03 0.10 0.05 0.01 0.00 0.00 0.00 0.00 0.00 0.00 0.00 0.00 0.00 0.02 0.00 0.02 0.00 0.01 0.05 0.04 0.09 0.01 0.03 0.03 0.01 0.02 0.14 0.27 0.19 0.17 0.10 0.19 0.11 0.18 0.20 0.24 0.23 0.20 0.36 0.53 0.67 0.67
0.14 0.16 0.37 0.33 0.09 0.46 0.29 0.27 0.49 0.33 0.52 0.41 0.48 0.52 0.85 1.11 0.74 0.72 0.43 0.49 1.00 0.98 1.01 0.64 0.75 0.35 0.20 0.13 0.09 0.06 0.18 0.08 0.08 0.05 0.05 0.05 0.07 0.04 0.03 0.19 0.04 0.20 0.13 0.15 0.12 0.08 0.09 0.07 0.07 0.01 0.00 0.01 0.00 0.01 0.00 0.00 0.00 0.00 0.00 0.02 0.21 0.19 0.02 0.10 0.05 0.03 0.00 0.03 0.08 0.00 0.01 0.03 0.02 0.21 0.41 0.20 0.11 0.16 0.15 0.12 0.13 0.14 0.17 0.21 0.31 0.38 0.60 0.63
0.08 0.08 0.29 0.16 0.45 0.38 0.24 0.57 0.31 0.34 0.38 0.43 0.56 0.74 0.95 1.19 0.69 0.26 0.43 0.45 1.86 0.87 0.86 1.03 0.71 0.27 0.36 0.23 0.12 0.11 0.20 0.28 0.06 0.04 0.01 0.08 0.06 0.02 0.02 0.05 0.03 0.07 0.22 0.12 0.14 0.11 0.11 0.05 0.01 0.04 0.01 0.00 0.02 0.01 0.03 0.01 0.00 0.00 0.03 0.08 0.08 0.17 0.07 0.02 0.07 0.02 0.06 0.02 0.02 0.05 0.02 0.05 0.23 0.21 0.25 0.44 0.19 0.16 0.13 0.38 0.33 0.13 0.14 0.15 0.22 0.42 0.41 0.65
0.07 0.13 0.15 0.15 0.18 0.09 0.11 0.30 0.23 0.28 0.22 0.49 0.70 0.79 1.86 1.06 0.59 0.60 0.46 0.82 1.68 0.88 0.90 0.90 0.41 0.24 0.20 0.33 0.14 0.22 0.19 0.10 0.06 0.07 0.02 0.10 0.06 0.13 0.06 0.02 0.08 0.05 0.11 0.12 0.18 0.15 0.29 0.26 0.08 0.05 0.07 0.01 0.01 0.00 0.02 0.02 0.01 0.01 0.00 0.00 0.08 0.11 0.07 0.02 0.05 0.05 0.03 0.18 0.07 0.05 0.01 0.09 0.15 0.67 0.39 0.47 0.30 0.14 0.11 0.25 0.48 0.49 0.21 0.25 0.25 0.27 0.74 1.28
0.11 0.11 0.07 0.19 0.17 0.15 0.15 0.15 0.55 0.37 0.28 0.55 0.78 0.99 0.89 0.58 0.72 0.62 0.72 0.66 1.09 1.09 0.85 0.53 0.49 0.17 0.30 0.11 0.24 0.14 0.07 0.30 0.03 0.09 0.06 0.08 0.12 0.05 0.06 0.03 0.01 0.04 0.11 0.19 0.18 0.24 0.07 0.05 0.03 0.00 0.02 0.00 0.01 0.00 0.00 0.05 0.01 0.01 0.00 0.00 0.03 0.02 0.00 0.10 0.24 0.03 0.15 0.08 0.06 0.05 0.06 0.36 0.92 0.98 0.57 0.27 0.19 0.07 0.17 0.31 0.29 0.39 0.77 0.66 0.72 0.70 0.55 0.91
0.09 0.46 0.05 0.20 0.19 0.34 0.10 0.20 0.46 0.58 0.36 0.65 1.04 0.93 0.68 0.72 1.16 0.80 1.19 0.83 1.83 1.64 0.92 0.49 0.54 0.44 0.23 0.29 0.06 0.22 0.04 0.36 0.12 0.10 0.11 0.02 0.09 0.09 0.01 0.03 0.03 0.00 0.14 0.19 0.29 0.25 0.09 0.28 0.02 0.03 0.02 0.01 0.00 0.00 0.00 0.00 0.17 0.18 0.00 0.05 0.02 0.01 0.02 0.04 0.00 0.01 0.00 0.00 0.04 0.01 0.12 0.32 0.32 1.35 0.57 0.62 0.27 0.26 0.27 0.36 0.21 0.39 0.59 1.00 1.27 0.77 0.76 1.07
0.43 0.05 0.26 0.05 0.08 0.08 0.16 0.62 0.42 0.27 0.39 0.70 1.09 0.85 0.35 0.56 0.48 0.79 1.05 1.07 1.66 1.78 1.31 1.49 0.76 0.72 0.30 0.27 0.22 0.08 0.27 0.11 0.27 0.11 0.32 0.05 0.10 0.04 0.02 0.03 0.00 0.01 0.02 0.17 0.22 0.17 0.24 0.34 0.06 0.04 0.05 0.01 0.01 0.00 0.01 0.00 0.00 0.01 0.02 0.03 0.00 0.00 0.02 0.02 0.12 0.04 0.01 0.02 0.13 0.03 0.09 0.56 0.10 1.20 1.17 0.74 0.55 1.05 0.95 0.56 0.22 0.45 0.72 0.68 0.81 1.59 1.47 1.90
0.37 0.21 0.09 0.12 0.06 0.03 0.08 0.36 0.13 0.29 0.51 0.80 0.85 0.62 0.41 0.68 0.70 0.84 0.84 1.12 1.31 1.52 1.95 1.48 1.00 0.85 0.28 0.19 0.28 0.21 0.26 0.22 0.61 0.35 0.30 0.04 0.31 0.01 0.03 0.04 0.01 0.02 0.01 0.06 0.20 0.22 0.07 0.34 0.06 0.00 0.01 0.01 0.01 0.02 0.01 0.00 0.01 0.02 0.07 0.01 0.02 0.06 0.05 0.03 0.00 0.03 0.02 0.01 0.09 0.08 0.12 0.11 0.15 0.58 0.57 1.15 0.67 1.00 1.06 0.77 0.36 0.30 0.37 0.49 0.86 1.03 1.38 2.26
0.24 0.22 0.32 0.10 0.03 0.18 0.05 0.06 0.09 0.38 0.84 0.80 0.51 0.94 0.38 0.50 0.51 0.64 0.88 1.21 1.32 1.57 1.19 0.90 1.39 0.75 1.03 0.40 0.27 0.14 0.11 0.39 0.13 0.25 0.29 0.22 0.38 0.03 0.15 0.02 0.06 0.00 0.01 0.08 0.06 0.16 0.03 0.24 0.15 0.04 0.02 0.04 0.04 0.07 0.04 0.00 0.00 0.00 0.00 0.04 0.00 0.01 0.05 0.08 0.02 0.20 0.01 0.18 0.04 0.22 0.12 0.28 0.16 0.43 0.23 0.39 0.24 0.34 0.32 0.44 0.42 0.42 0.40 0.60 1.28 0.96 0.93 1.37
0.35 0.46 0.51 0.15 0.03 0.06 0.05 0.04 0.24 0.54 0.82 0.84 0.44 0.51 0.40 0.60 0.34 0.63 0.65 1.16 1.50 1.35 0.97 0.88 0.74 0.99 0.31 0.47 0.22 0.31 0.23 0.20 0.11 0.25 0.20 0.41 0.19 0.05 0.11 0.00 0.11 0.00 0.02 0.01 0.10 0.02 0.18 0.15 0.37 0.14 0.02 0.05 0.12 0.01 0.01 0.01 0.06 0.01 0.00 0.00 0.01 0.01 0.03 0.01 0.10 0.03 0.19 0.13 0.09 0.12 0.16 0.49 0.49 0.19 0.14 0.27 0.30 0.36 0.56 0.71 0.79 0.71 0.82 0.94 1.10 1.45 1.37 1.49
0.21 0.63 0.78 0.48 0.32 0.04 0.15 0.25 0.40 0.48 0.45 0.40 0.54 0.70 0.57 0.63 0.48 0.33 0.62 0.93 1.10 0.84 1.01 0.81 0.62 0.79 0.85 0.54 0.37 0.17 0.22 0.12 0.16 0.32 0.14 0.13 0.08 0.25 0.00 0.05 0.01 0.08 0.01 0.03 0.05 0.09 0.08 0.11 0.15 0.08 0.11 0.09 0.05 0.01 0.02 0.00 0.00 0.01 0.01 0.05 0.05 0.09 0.16 0.10 0.10 0.00 0.08 0.04 0.11 0.10 0.19 0.57 0.30 0.24 0.32 0.36 0.50 0.51 0.57 0.61 0.82 1.04 1.17 1.03 1.50 1.37 1.45 1.61
0.60 0.70 1.03 0.80 0.44 0.08 0.13 0.50 0.31 0.26 0.34 0.45 0.71 1.02 0.91 0.37 0.30 0.26 0.38 0.56 0.76 1.03 0.91 0.82 0.61 0.78 0.68 0.70 0.51 0.30 0.20 0.09 0.10 0.11 0.10 0.30 0.36 0.22 0.17 0.00 0.01 0.04 0.07 0.07 0.06 0.07 0.23 0.17 0.23 0.05 0.12 0.10 0.02 0.02 0.00 0.00 0.01 0.01 0.00 0.03 0.00 0.04 0.01 0.14 0.19 0.27 0.09 0.07 0.04 0.23 0.10 0.52 0.42 0.53 0.60 0.44 0.54 0.49 0.67 1.04 0.80 0.58 0.77 0.97 0.81 0.89 0.98 0.74
0.41 0.97 1.83 0.93 0.53 0.20 0.27 0.27 0.21 0.23 0.37 0.30 0.42 0.65 0.69 0.57 0.33 0.21 0.25 0.47 0.80 0.64 0.85 0.88 0.71 0.73 0.70 0.65 0.27 0.29 0.11 0.26 0.07 0.34 0.21 0.22 0.42 0.16 0.04 0.01 0.01 0.03 0.01 0.19 0.12 0.14 0.05 0.10 0.07 0.07 0.18 0.07 0.08 0.01 0.01 0.02 0.03 0.01 0.00 0.00 0.00 0.06 0.09 0.09 0.13 0.21 0.13 0.12 0.07 0.18 0.07 0.90 0.32 0.56 0.99 0.61 0.45 0.49 0.48 0.62 0.62 0.78 0.74 0.55 0.74 0.51 1.16 1.14
0.66 1.94 1.12 0.99 0.52 0.36 0.49 0.40 0.25 0.11 0.20 0.18 0.30 0.47 0.64 0.54 0.37 0.33 0.24 0.29 0.74 1.02 1.07 0.91 0.87 0.51 0.64 0.48 0.47 0.58 0.26 0.32 0.06 0.14 0.23 0.09 0.30 0.04 0.02 0.02 0.01 0.05 0.08 0.42 0.23 0.14 0.14 0.19 0.16 0.20 0.21 0.24 0.29 0.07 0.04 0.03 0.02 0.02 0.03 0.02 0.00 0.01 0.04 0.10 0.08 0.14 0.01 0.05 0.19 0.15 0.22 0.54 0.54 0.71 0.54 0.48 0.43 0.43 0.69 0.56 0.46 0.74 0.70 0.53 0.41 0.55 0.59 0.64
0.89 1.45 1.40 1.12 0.57 0.44 0.51 0.61 0.32 0.18 0.25 0.22 0.30 0.40 0.59 0.60 0.37 0.31 0.28 0.32 0.46 0.77 0.96 0.94 0.67 0.46 0.58 0.52 0.23 0.47 0.27 0.34 0.25 0.25 0.37 0.24 0.32 0.01 0.01 0.02 0.01 0.15 0.10 0.04 0.09 0.10 0.17 0.29 0.06 0.16 0.33 0.32 0.35 0.29 0.27 0.14 0.05 0.02 0.03 0.02 0.05 0.02 0.08 0.15 0.05 0.06 0.05 0.07 0.12 0.11 0.59 0.54 0.71 0.64 0.61 0.33 0.33 0.48 0.48 0.49 0.56 1.06 1.13 0.72 0.72 0.99 0.78 0.83
1.31 1.64 1.08 1.14 1.44 0.98 0.29 0.35 0.30 0.43 0.21 0.32 0.26 0.32 0.40 0.71 0.38 0.50 0.29 0.32 0.32 0.41 0.81 1.20 0.90 0.52 0.60 0.91 0.42 0.71 0.45 0.20 0.31 0.21 0.32 0.40 0.20 0.07 0.03 0.01 0.05 0.04 0.04 0.04 0.08 0.11 0.38 0.16 0.16 0.12 0.31 0.50 0.34 0.29 0.14 0.04 0.03 0.06 0.07 0.05 0.06 0.00 0.03 0.07 0.12 0.15 0.12 0.15 0.11 0.11 0.18 0.65 0.77 0.57 0.43 0.49 0.31 0.57 0.62 0.57 0.41 0.37 0.48 0.49 0.58 0.61 0.72 0.59
1.02 1.34 1.15 0.69 0.56 0.87 0.70 0.32 0.30 0.25 0.24 0.33 0.64 0.40 0.55 0.52 0.51 0.42 0.18 0.53 0.26 0.51 0.46 0.53 0.52 0.76 0.49 0.36 0.33 0.49 0.79 0.55 0.28 0.21 0.45 0.78 0.32 0.29 0.02 0.16 0.05 0.01 0.02 0.04 0.09 0.23 0.70 0.42 0.22 0.07 0.27 0.14 0.04 0.15 0.03 0.05 0.12 0.12 0.13 0.06 0.03 0.05 0.04 0.08 0.03 0.13 0.26 0.16 0.26 0.23 0.16 0.21 0.47 0.34 0.29 0.42 0.47 0.54 0.59 0.33 0.32 0.46 0.59 0.59 0.51 0.44 0.57 0.87
1.23 1.20 1.08 0.96 0.77 0.51 0.44 0.76 0.33 0.42 0.27 0.32 0.69 0.34 0.46 0.65 0.55 0.76 0.39 0.25 0.37 0.36 0.68 0.42 0.59 0.66 0.51 0.32 0.38 0.50 0.73 0.56 0.54 0.35 0.33 0.26 0.13 0.37 0.56 0.21 0.30 0.09 0.05 0.09 0.03 0.12 0.45 0.31 0.43 0.33 0.26 0.29 0.15 0.03 0.09 0.05 0.09 0.13 0.11 0.18 0.16 0.11 0.07 0.13 0.10 0.12 0.17 0.11 0.48 0.44 0.50 0.18 0.31 0.33 0.35 0.28 0.20 0.24 0.25 0.31 0.29 0.50 0.47 0.53 0.53 0.68 0.67 0.53
1.67 1.24 1.24 0.64 0.49 0.53 0.28 0.36 0.29 0.34 0.62 0.47 0.41 0.32 0.46 0.46 0.71 0.82 0.90 0.90 0.65 0.67 0.83 0.86 0.72 0.58 0.55 0.54 0.77 0.88 0.46 0.50 0.29 0.59 0.50 0.28 0.35 0.35 0.52 0.42 0.24 0.13 0.04 0.23 0.09 0.18 0.23 0.44 0.50 0.39 0.42 0.51 0.23 0.17 0.12 0.20 0.21 0.10 0.05 0.17 0.21 0.22 0.20 0.08 0.07 0.12 0.19 0.14 0.13 0.12 0.14 0.21 0.40 0.46 0.34 0.37 0.35 0.39 0.41 0.19 0.28 0.52 0.57 0.46 0.62 0.39 0.31 0.34
1.54 1.94 1.52 0.47 0.61 0.53 0.36 0.65 0.61 0.49 0.52 0.24 0.34 0.33 0.42 0.56 0.63 1.15 0.70 0.76 0.89 0.95 1.03 1.12 0.77 0.64 0.65 0.86 1.21 1.01 1.35 0.71 0.57 0.63 0.42 0.63 0.47 0.24 0.38 0.58 0.80 0.13 0.09 0.25 0.14 0.34 0.38 0.74 0.22 0.44 0.42 0.34 0.46 0.27 0.24 0.37 0.14 0.17 0.02 0.04 0.05 0.13 0.05 0.07 0.14 0.11 0.07 0.18 0.14 0.03 0.02 0.18 0.34 0.21 0.31 0.38 0.26 0.22 0.18 0.23 0.21 0.24 0.34 0.54 0.37 0.51 0.54 0.35
1.37 1.41 1.37 0.90 0.54 0.44 0.43 0.56 0.48 0.57 0.65 0.53 0.34 0.44 0.35 0.43 0.67 0.94 1.23 0.52 0.71 0.95 1.19 1.17 0.85 0.88 0.39 0.46 0.50 0.75 0.60 0.53 0.27 0.42 0.78 0.29 0.41 0.39 0.28 0.46 0.07 0.38 0.23 0.43 0.20 0.73 0.20 1.06 0.42 0.80 0.42 0.54 0.46 0.51 0.39 0.49 0.32 0.34 0.21 0.09 0.06 0.22 0.18 0.08 0.18 0.29 0.22 0.31 0.29 0.25 0.05 0.18 0.47 0.22 0.29 0.24 0.22 0.18 0.16 0.19 0.21 0.50 0.30 0.26 0.35 0.24 0.34 0.54
0.87 0.96 0.79 1.01 0.39 0.06 0.35 0.38 0.64 0.47 0.51 0.61 0.74 0.57 0.46 0.60 0.52 0.76 0.90 0.32 0.82 0.55 0.77 1.02 0.87 1.05 0.85 0.75 0.70 0.67 0.41 0.72 0.44 0.28 0.15 0.27 0.30 0.55 0.20 0.36 0.28 0.46 0.35 0.15 0.30 0.48 0.73 0.30 0.43 0.44 0.43 0.50 0.70 0.58 0.62 0.39 0.45 0.54 0.37 0.18 0.15 0.22 0.20 0.12 0.12 0.14 0.15 0.35 0.73 0.47 0.33 0.15 0.23 0.19 0.22 0.26 0.20 0.23 0.19 0.19 0.19 0.17 0.17 0.11 0.13 0.16 0.24 0.28